Home > Weather > Ratingen > Past weeks

Flag for Germany Weather for the Past 2 Weeks in Ratingen, North Rhine-Westphalia, Germany

Now
52 °F

Clear.


Feels Like: 46 °F
Forecast: 45 / 51 °F
Wind: 21 mph from South

Location: Duesseldorf

Current Time: Feb 7, 2016 at 7:11:20 AM

Latest Report: Feb 7, 2016 at 6:20 AM


Visibility: 10 mi

Pressure: 29.45 "Hg

Humidity: 62%

Dew point: 39 °F

Location of RatingenLocation

Historic Weather in Ratingen — Graph

°F

Ratingen Temperature Yesterday

Maximum temperature yesterday: 54 °F (at 1:50 PM)
Minimum temperature yesterday: 46 °F (at 5:20 AM)
Average temperature yesterday: 50 °F

High & Low Weather Summary for the Past Weeks

 TemperatureHumidityPressure
High57 °F (Jan 25, 1:50 PM)100% (Jan 23, 5:20 AM)30.54 "Hg (Jan 23, 5:20 AM)
Low36 °F (Jan 28, 10:50 PM)57% (Jan 28, 2:50 PM)29.45 "Hg (Feb 7, 4:50 AM)
Average47 °F84%30.10 "Hg
* Reported Jan 23 5:20 AM — Feb 7 5:50 AM, Ratingen, Weather by CustomWeather, © 2016

Note: Actual official high and low records may vary slightly from our data, if they occured in-between our weather recording intervals... More about our weather records

Advertising

Ratingen Weather History for the Previous 24 Hours

 ConditionsComfort  
Time TempWeatherWind HumidityBarometerVisibility
5:50 AM
Sun, Feb 7
52 °FClear.22 mph62%29.45 "Hg10 mi
5:20 AM52 °FClear.18 mph62%29.45 "Hg10 mi
4:50 AM52 °FClear.14 mph67%29.45 "Hg10 mi
4:20 AM50 °FPassing clouds.14 mph71%29.47 "HgN/A
3:50 AM50 °FClear.15 mph71%29.47 "Hg10 mi
3:20 AM52 °FClear.18 mph67%29.47 "Hg10 mi
2:20 AM50 °FClear.18 mph67%29.50 "Hg10 mi
1:50 AM50 °FPassing clouds.16 mph67%29.53 "HgN/A
1:20 AM50 °FClear.17 mph71%29.53 "Hg10 mi
12:50 AM50 °FClear.15 mph71%29.56 "Hg10 mi
12:20 AM50 °FClear.16 mph71%29.56 "Hg10 mi
11:50 PM
Sat, Feb 6
50 °FPassing clouds.18 mph71%29.56 "HgN/A
11:20 PM50 °FClear.17 mph71%29.56 "Hg10 mi
10:50 PM50 °FClear.18 mph71%29.59 "Hg10 mi
9:50 PM50 °FClear.15 mph67%29.59 "Hg10 mi
9:20 PM50 °FClear.14 mph67%29.62 "Hg10 mi
8:50 PM50 °FClear.14 mph67%29.62 "Hg10 mi
8:20 PM50 °FClear.14 mph67%29.65 "Hg10 mi
7:50 PM52 °FClear.16 mph67%29.65 "Hg10 mi
7:20 PM52 °FClear.14 mph67%29.65 "Hg10 mi
6:50 PM50 °FClear.15 mph71%29.68 "Hg10 mi
6:20 PM50 °FClear.12 mph71%29.68 "Hg10 mi
5:50 PM50 °FPassing clouds.12 mph71%29.71 "HgN/A
5:20 PM50 °FSunny.15 mph71%29.71 "Hg10 mi
4:50 PM52 °FSunny.17 mph67%29.74 "Hg10 mi
4:20 PM52 °FSunny.17 mph67%29.74 "Hg10 mi
3:50 PM54 °FPartly sunny.15 mph63%29.74 "HgN/A
3:20 PM54 °FPartly sunny.16 mph63%29.77 "HgN/A
2:50 PM54 °FBroken clouds.17 mph67%29.80 "HgN/A
2:20 PM52 °FBroken clouds.16 mph67%29.80 "HgN/A
1:50 PM54 °FBroken clouds.15 mph63%29.80 "HgN/A
1:20 PM52 °FPartly sunny.13 mph72%29.83 "HgN/A
12:50 PM52 °FBroken clouds.16 mph72%29.86 "HgN/A
12:20 PM52 °FPartly sunny.17 mph72%29.86 "HgN/A
11:50 AM50 °FPartly sunny.15 mph76%29.86 "HgN/A
11:20 AM48 °FPartly sunny.12 mph82%29.89 "HgN/A
10:50 AM48 °FPartly sunny.15 mph82%29.89 "HgN/A
10:20 AM48 °FPartly sunny.15 mph82%29.89 "HgN/A
9:50 AM48 °FScattered clouds.15 mph76%29.89 "HgN/A
9:20 AM46 °FScattered clouds.14 mph82%29.89 "HgN/A
8:50 AM46 °FScattered clouds.14 mph82%29.92 "HgN/A
8:20 AM46 °FPartly sunny.14 mph82%29.89 "HgN/A
7:50 AM46 °FPassing clouds.14 mph87%29.92 "HgN/A
7:20 AM46 °FPartly cloudy.12 mph87%29.92 "HgN/A
Weather by CustomWeather, © 2016

See weather overviewHow to use our weather pages